Time,B instrument,Bx,By,Bz,sigma B,Ion instrument,Status,Tp_par,Tp_perp,carrot,r_sun,clat,clong,earth_he_angle,n_p,vp_x,vp_y,vp_z,vth_p_par,vth_p_perp
1980-04-14 00:01:31,1,6.53333,-5.2,-3.63333,0.312694,1,1,31536.3,31899.8,1694,0.77696866,-4.9264507,289.58838,274.71338,9.82674,312.871,-15.4023,24.9418,22.8173,22.9484
1980-04-14 00:03:03,1,-0.233333,-7.7,-3.3,0.262467,1,1,145836.0,46566.3,1694,0.77695674,-4.9265938,289.5769,274.71362,11.3942,351.116,-3.14199,15.5829,49.0671,27.7264
1980-04-14 00:05:45,1,4.23333,-6.1,-3.96667,1.80862,1,1,49418.4,23893.7,1694,0.77694482,-4.9267378,289.55371,274.71387,10.3193,344.373,-9.10933,28.4089,28.5629,19.8609
1980-04-14 00:08:27,1,6.0,-5.0,-4.03333,0.329983,1,1,33869.9,20901.6,1694,0.77692693,-4.9269533,289.52661,274.71411,8.47575,314.902,-23.0163,23.8563,23.6464,18.5758
1980-04-14 00:11:09,1,5.93333,-3.4,-4.63333,0.751295,1,1,30129.4,28959.9,1694,0.77690905,-4.9271679,289.50342,274.71436,8.54422,319.871,-12.5537,30.0599,22.3025,21.8654
1980-04-14 00:16:33,1,8.06667,-4.9,-3.1,0.368179,1,1,28059.2,29830.3,1694,0.77687925,-4.9275274,289.45313,274.71484,9.80989,309.712,-13.7223,13.4352,21.5226,22.1915
1980-04-14 00:19:15,1,8.93333,-2.46667,-2.73333,1.47648,1,1,25435.4,34023.7,1694,0.77686137,-4.927743,289.42993,274.71509,9.499,309.981,-16.3013,19.2147,20.4917,23.7
1980-04-14 00:21:57,1,5.93333,-7.06667,-3.53333,0.33665,1,1,35287.3,24619.3,1694,0.77684945,-4.927886,289.40283,274.71533,9.51476,325.406,-7.57459,21.5581,24.1361,20.1602
1980-04-14 00:24:39,1,7.3,-4.4,-4.4,0.270801,1,1,26733.1,16626.0,1694,0.77683157,-4.9281015,289.37964,274.71558,8.86359,316.026,-23.5534,20.7398,21.0079,16.5673
1980-04-14 00:27:21,1,8.0,-4.53333,-3.66667,0.444722,1,1,34155.2,36730.7,1694,0.77681369,-4.9283171,289.35645,274.71582,9.98608,311.524,-14.2744,17.0226,23.7458,24.6248
1980-04-14 00:30:03,1,8.26667,-4.4,-3.43333,0.48074,1,1,25685.4,32637.7,1694,0.7767958,-4.9285326,289.32959,274.71631,9.29921,309.698,-17.6031,15.3279,20.5921,23.2123
1980-04-14 00:32:45,1,9.43333,-2.83333,-2.33333,0.305505,1,1,23896.1,33065.4,1694,0.77678388,-4.9286757,289.30615,274.71631,9.63133,304.056,-22.942,11.4872,19.8619,23.3639
1980-04-14 00:35:27,1,8.73333,-1.4,-3.93333,0.551765,1,1,27748.3,34790.0,1694,0.776766,-4.9288912,289.2832,274.7168,10.7207,312.04,-25.9031,23.9573,21.4031,23.9654
1980-04-14 00:40:51,1,9.13333,-3.26667,-3.0,0.194365,1,1,33399.0,35087.2,1694,0.7767362,-4.9292498,289.23291,274.71729,10.1621,307.276,-24.5587,12.9606,23.4814,24.0676
1980-04-14 00:43:33,1,10.35,-2.95,1.5,0.324037,1,1,22861.9,35289.2,1694,0.77671832,-4.9294653,289.20972,274.71753,9.91316,299.687,-27.6951,-13.7154,19.4274,24.1368
1980-04-14 00:46:15,1,10.5667,-3.2,3.56667,0.312694,1,1,35474.5,32063.4,1694,0.77670044,-4.9296808,289.18262,274.71777,9.6186,299.477,-27.1637,-26.1287,24.2001,23.0072
1980-04-14 00:48:57,1,10.1,-3.1,5.0,0.365148,1,1,24919.5,33897.0,1694,0.77668852,-4.9298239,289.15942,274.71802,9.56118,299.775,-27.9603,-30.0469,20.2828,23.6558
1980-04-14 00:51:39,1,10.8667,-2.3,3.0,0.418994,1,1,27620.6,33325.7,1694,0.77667063,-4.9300394,289.13623,274.71826,9.81653,296.114,-32.0007,-23.3705,21.3538,23.4556
1980-04-14 00:54:21,1,10.2,-3.6,3.93333,0.188562,1,1,24962.5,34632.8,1694,0.77665275,-4.9302549,289.10913,274.71851,9.45231,300.101,-21.8627,-29.0675,20.3003,23.9112
1980-04-14 00:57:03,1,9.3,-4.63333,6.3,0.262467,1,1,29140.3,35173.4,1694,0.77663493,-4.9304705,289.08594,274.71875,9.43436,307.052,-20.8295,-42.1083,21.9334,24.0971
1980-04-14 00:59:45,1,10.4667,-1.93333,5.56667,0.535413,1,1,28352.7,35668.1,1694,0.77662295,-4.9306135,289.06274,274.71899,9.38225,299.984,-32.6449,-35.5821,21.6349,24.266
1980-04-14 01:02:27,1,10.6,-3.46667,2.23333,0.437163,1,1,25551.8,38219.2,1694,0.77660507,-4.930829,289.03564,274.71924,9.33452,295.994,-25.204,-16.3587,20.5385,25.1188
1980-04-14 01:05:09,1,9.9,-0.233333,7.13333,0.598145,1,1,31747.5,40006.1,1694,0.77658719,-4.9310446,289.0127,274.71973,10.722,304.323,-42.0076,-46.1816,22.8935,25.6993
1980-04-14 01:07:51,1,11.2,-1.3,3.73333,0.329983,1,1,23292.8,46483.3,1694,0.77657527,-4.9311886,288.98926,274.71973,8.98736,292.515,-32.2257,-28.8832,19.6096,27.7017
1980-04-14 01:10:33,1,11.1333,0.133333,2.23333,0.583095,1,1,29111.8,40655.1,1694,0.77655739,-4.9314041,288.9624,274.72021,9.51071,296.371,-45.3791,-12.4106,21.9226,25.9069
1980-04-14 01:13:15,1,11.1333,-0.433333,3.86667,0.305505,1,1,36392.3,39274.7,1694,0.7765395,-4.9316196,288.93921,274.72046,10.0588,298.643,-46.5234,-24.2075,24.5111,25.4633
1980-04-14 01:15:57,1,11.3667,-0.0666667,1.93333,0.216025,1,1,26127.6,37553.2,1694,0.77652752,-4.9317627,288.91602,274.7207,9.25581,295.764,-43.4471,-14.7952,20.7686,24.899
1980-04-14 01:18:39,1,11.3,-0.1,-0.333333,0.492161,1,1,36694.9,38847.7,1694,0.77650964,-4.9319782,288.88892,274.72095,10.7298,297.131,-42.6076,-4.99534,24.6128,25.3245
1980-04-14 01:21:21,1,11.1667,0.433333,0.433333,0.535413,1,1,28565.0,36528.9,1694,0.77649176,-4.9321938,288.86572,274.72119,10.0996,296.243,-46.9236,-10.4678,21.7158,24.557
1980-04-14 01:24:03,1,10.4,-2.53333,-1.63333,1.2693,1,1,31350.9,38836.1,1694,0.77647388,-4.9324093,288.84253,274.72144,10.1914,305.68,-27.0599,15.7515,22.7501,25.3207
1980-04-14 01:26:45,1,10.2,-2.2,-2.56667,0.46428,1,1,29042.0,41732.6,1694,0.77646196,-4.9325533,288.81543,274.72168,10.7932,300.491,-32.9899,8.76066,21.8963,26.248
1980-04-14 01:29:27,1,8.73333,-6.4,-1.63333,0.38873,1,1,31272.5,44221.1,1694,0.77644408,-4.9327688,288.79224,274.72192,10.9154,308.316,-9.06792,4.42045,22.7216,27.0192
1980-04-14 01:32:09,1,7.53333,-5.73333,-3.46667,1.61864,1,1,31899.4,47290.1,1694,0.77642614,-4.9329844,288.76904,274.72217,12.2497,319.684,-2.75545,17.6044,22.9482,27.9411
1980-04-14 01:34:51,1,-1.9,-7.975,-6.0,0.227761,1,1,54370.7,56857.8,1694,0.77641422,-4.9331274,288.74194,274.72241,8.25529,359.221,-6.66832,25.4519,29.9599,30.6375
1980-04-14 01:37:33,1,-2.35,-6.95,-6.5,0.316228,1,1,49652.2,51127.3,1694,0.77639633,-4.9333429,288.71875,274.72266,8.61501,365.768,-12.5976,27.9314,28.6304,29.0526
1980-04-14 01:40:15,1,-1.7,-6.9,-7.225,0.383243,1,1,49745.9,49251.1,1694,0.77637845,-4.9335585,288.6958,274.72314,8.39678,359.254,-14.6027,34.9737,28.6574,28.5145
1980-04-14 01:42:57,1,-2.925,-6.8,-6.625,0.451387,1,1,50737.2,42695.9,1694,0.77636653,-4.9337025,288.66846,274.72314,9.46616,364.77,-13.6655,28.4427,28.9415,26.5492
1980-04-14 01:45:39,1,-5.0,-9.1,-4.2,0.734847,1,1,44272.4,56792.8,1694,0.77634859,-4.933918,288.64551,274.72363,9.80026,374.482,3.76655,10.6903,27.0349,30.6199
1980-04-14 01:48:21,1,-4.7,-8.4,-5.2,0.34641,1,1,53002.7,55879.5,1694,0.77633071,-4.9341335,288.62231,274.72388,10.0005,374.798,-1.57612,17.8568,29.5806,30.3728
1980-04-14 01:51:03,1,-3.8,-7.86667,-5.96667,0.625389,1,1,39454.9,44775.2,1694,0.77631283,-4.9343491,288.59521,274.72412,8.7662,369.409,-2.08596,24.4001,25.5216,27.1879
1980-04-14 01:53:45,1,-5.0,-6.525,-6.0,2.19132,1,1,54724.4,53587.8,1694,0.77630091,-4.9344921,288.57202,274.72437,8.40075,377.42,-5.01211,17.3045,30.0572,29.7434
1980-04-14 01:56:27,1,-4.75,-6.525,-6.2,0.599479,1,1,54768.8,55299.5,1694,0.77628303,-4.9347076,288.54883,274.72461,9.78792,378.38,-19.739,31.3924,30.0694,30.2147
1980-04-14 01:59:09,1,-4.025,-4.95,-6.925,1.77799,1,1,51541.0,49902.1,1694,0.77626514,-4.9349232,288.52173,274.72485,8.80126,375.974,-27.194,36.5399,29.1699,28.7023
1980-04-14 02:01:51,1,2.475,-10.275,-0.4,2.52562,1,1,56413.9,52050.4,1694,0.77625316,-4.9350672,288.49854,274.7251,8.43527,345.877,7.04894,15.6906,30.5176,29.3137
1980-04-14 02:04:33,1,5.2,-9.975,0.975,0.555653,1,1,40817.9,54951.1,1694,0.77623528,-4.9352827,288.47534,274.72534,8.80358,322.998,12.3508,-1.12603,25.9587,30.1194
1980-04-14 02:07:15,1,-0.8,-6.23333,-6.9,0.537484,1,1,47780.5,56350.4,1694,0.77621734,-4.9354982,288.44824,274.72559,9.61933,357.404,-6.3682,37.0422,28.0856,30.5005
1980-04-14 02:09:57,1,-1.33333,-7.3,-6.43333,0.539547,1,1,50208.2,58040.5,1694,0.77620542,-4.9356413,288.42505,274.72583,9.81641,351.03,-7.35236,31.2246,28.7902,30.9545
1980-04-14 02:12:39,1,-1.43333,-6.76667,-6.6,0.301846,1,1,51201.5,58578.1,1694,0.77618748,-4.9358568,288.40186,274.72607,7.73138,355.573,-8.40661,33.922,29.0736,31.0975
1980-04-14 02:15:21,1,-2.46667,-6.96667,-6.23333,0.439697,1,1,53857.9,61858.7,1694,0.7761696,-4.9360723,288.375,274.72656,7.72549,362.529,-11.0114,34.2889,29.8183,31.9564
1980-04-14 02:18:03,1,-3.65,-6.8,-6.3,0.295804,1,1,51482.2,53316.9,1694,0.77615172,-4.9362879,288.35181,274.72681,8.18791,371.851,-14.0879,33.1886,29.1532,29.6681
1980-04-14 02:20:45,1,-3.35,-7.425,-6.0,0.315238,1,1,48222.8,51962.7,1694,0.77613974,-4.9364319,288.32861,274.72705,8.3383,364.708,-7.77232,29.1832,28.2153,29.2889
1980-04-14 02:23:27,1,-3.575,-6.5,-6.4,0.248747,1,1,49378.9,50174.1,1694,0.77612185,-4.9366474,288.30151,274.72729,7.95312,363.749,-12.0508,32.2632,28.5515,28.7805
1980-04-14 02:26:09,1,-4.5,-5.55,-7.9,0.193649,1,1,40597.2,49821.3,1694,0.77610391,-4.9368629,288.27832,274.72754,9.02859,370.946,-23.1067,37.4319,25.8884,28.6791
1980-04-14 02:28:51,1,-4.53333,-9.63333,-2.5,0.405518,1,1,55355.7,59852.6,1694,0.77609199,-4.937006,288.25513,274.72778,8.38036,372.571,5.83254,3.34549,30.2301,31.434
1980-04-14 02:31:33,1,-1.16667,-9.26667,-4.8,0.194365,1,1,55744.8,53757.7,1694,0.77607405,-4.9372215,288.22803,274.72803,7.82483,354.312,3.67363,21.9156,30.3361,29.7905
1980-04-14 02:34:15,1,-2.1,-8.26667,-5.53333,0.551765,1,1,51720.0,62178.2,1694,0.77605617,-4.9374371,288.20483,274.72827,8.3162,357.434,3.01201,21.4676,29.2205,32.0389
1980-04-14 02:36:57,1,-2.0,-8.03333,-6.1,0.537484,1,1,58610.6,62191.9,1694,0.77604419,-4.9375811,288.17773,274.72852,8.86987,364.005,-6.5629,27.5462,31.1061,32.0424
1980-04-14 02:39:39,1,-1.1,-8.25,-5.825,1.16806,1,1,55740.4,56783.2,1694,0.77602631,-4.9377966,288.15454,274.72876,8.07639,349.338,-14.2669,38.5388,30.3349,30.6174
1980-04-14 02:42:21,1,-1.8,-8.25,-5.9,0.35,1,1,55474.8,64060.9,1694,0.77600843,-4.9380121,288.13135,274.729,9.36506,357.077,-3.29572,26.6839,30.2626,32.5203
1980-04-14 02:45:03,1,-4.725,-8.05,-4.35,1.28331,1,1,68931.4,69458.8,1694,0.77599049,-4.9382277,288.10449,274.72949,8.69634,377.313,-11.0496,18.9252,33.7339,33.8627
1980-04-14 02:47:45,1,7.225,-0.95,7.2,2.85821,1,1,206537.0,57243.3,1694,0.77597857,-4.9383707,288.08105,274.72949,4.18777,331.511,-50.5126,-35.5351,58.3924,30.7412
1980-04-14 02:50:27,1,9.7,-3.86667,6.9,0.674949,1,1,41471.2,64489.7,1694,0.77596062,-4.9385862,288.05811,274.72998,10.033,300.895,-29.2684,-49.5364,26.1656,32.629
1980-04-14 02:52:37,-1,nan,nan,nan,nan,1,4,nan,nan,1694,0.7759487,-4.9387302,288.03857,274.72998,nan,nan,nan,nan,nan,nan
1980-04-14 02:53:09,1,9.53333,-0.833333,8.36667,0.282843,1,1,50384.4,51610.0,1694,0.77594274,-4.9388018,288.03101,274.73022,9.35173,299.938,-45.2961,-53.7653,28.8407,29.1894
1980-04-14 02:55:49,1,9.6,-2.73333,7.8,0.249444,1,1,37823.2,49632.4,1694,0.77593076,-4.9389458,288.00781,274.73047,9.39538,298.676,-39.5849,-52.3819,24.9883,28.6247
1980-04-14 03:03:25,-1,nan,nan,nan,nan,1,4,nan,nan,1694,0.77591115,-4.831543,287.85098,274.64395,nan,nan,nan,nan,nan,nan
1980-04-14 03:57:25,-1,nan,nan,nan,nan,1,3,nan,nan,1694,0.77556026,-4.9433994,287.45142,274.73657,nan,317.285,-9.76576,-3.58436,nan,nan
1980-04-14 04:08:13,-1,nan,nan,nan,nan,1,3,nan,nan,1694,0.77549452,-4.9441891,287.35107,274.73779,nan,326.958,-12.8208,-8.59558,nan,nan
1980-04-14 04:19:01,-1,nan,nan,nan,nan,1,3,nan,nan,1694,0.77542871,-4.9449797,287.25439,274.73877,nan,325.181,5.98702,-9.91572,nan,nan
1980-04-14 04:29:49,-1,nan,nan,nan,nan,1,3,nan,nan,1694,0.77536887,-4.9456978,287.15405,274.73999,nan,326.284,-4.47259,-9.25442,nan,nan
1980-04-14 04:40:37,-1,nan,nan,nan,nan,1,3,nan,nan,1694,0.77530313,-4.9464884,287.05737,274.74097,nan,326.751,0.280468,-27.4917,nan,nan
1980-04-14 04:51:25,-1,nan,nan,nan,nan,1,3,nan,nan,1694,0.77523732,-4.947279,286.96094,274.74219,nan,331.509,7.62398,-6.04962,nan,nan
1980-04-14 05:02:13,-1,nan,nan,nan,nan,1,3,nan,nan,1694,0.77517152,-4.9480686,286.86035,274.74316,nan,328.699,5.15393,-7.80057,nan,nan
1980-04-14 05:13:01,-1,nan,nan,nan,nan,1,3,nan,nan,1694,0.77510566,-4.9488592,286.76392,274.74438,nan,342.375,17.1013,0.615372,nan,nan
1980-04-14 05:23:49,-1,nan,nan,nan,nan,1,3,nan,nan,1694,0.77504575,-4.9495773,286.66724,274.74536,nan,344.849,23.354,1.18605,nan,nan
1980-04-14 05:34:37,-1,nan,nan,nan,nan,1,3,nan,nan,1694,0.77497989,-4.950367,286.56689,274.74658,nan,341.678,20.2057,1.18918,nan,nan
1980-04-14 05:45:25,-1,nan,nan,nan,nan,1,3,nan,nan,1694,0.77491403,-4.9511576,286.47021,274.74756,nan,334.864,8.82807,-5.84315,nan,nan
1980-04-14 05:56:13,-1,nan,nan,nan,nan,1,3,nan,nan,1694,0.77484816,-4.9519472,286.37378,274.74878,nan,328.453,2.63421,-5.71692,nan,nan
1980-04-14 06:07:01,-1,nan,nan,nan,nan,1,3,nan,nan,1694,0.7747823,-4.9527378,286.27319,274.74976,nan,329.377,5.28518,-20.4603,nan,nan
1980-04-14 06:17:49,-1,nan,nan,nan,nan,1,3,nan,nan,1694,0.77472234,-4.9534569,286.17676,274.75098,nan,332.906,0.302896,-16.865,nan,nan
1980-04-14 06:28:37,-1,nan,nan,nan,nan,1,3,nan,nan,1694,0.77465641,-4.9542475,286.08008,274.75195,nan,321.114,-2.24414,-11.0691,nan,nan
1980-04-14 06:39:25,-1,nan,nan,nan,nan,1,3,nan,nan,1694,0.77459049,-4.9550381,285.97974,274.75317,nan,324.327,-11.8274,-19.5741,nan,nan
1980-04-14 06:50:13,-1,nan,nan,nan,nan,1,3,nan,nan,1694,0.77452457,-4.9558296,285.88306,274.75415,nan,327.374,2.58363,-12.051,nan,nan
1980-04-14 07:01:01,-1,nan,nan,nan,nan,1,3,nan,nan,1694,0.77445865,-4.9566202,285.78271,274.75537,nan,288.935,-59.8416,-45.2067,nan,nan
1980-04-14 07:11:40,-1,nan,nan,nan,nan,1,3,nan,nan,1694,0.77442533,-4.849926,285.59888,274.66919,nan,333.792,1.1935,-25.1817,nan,nan
1980-04-14 07:45:16,-1,nan,nan,nan,nan,1,3,nan,nan,1694,0.77419472,-4.9597826,285.38501,274.76001,nan,336.943,-11.3818,-3.87219,nan,nan
1980-04-14 07:46:37,1,6.4,-8.43333,6.61667,0.316667,1,1,142699.0,123950.0,1694,0.7741887,-4.9598541,285.36938,274.76001,7.2817,336.841,-18.1499,-9.41044,48.5365,45.2357
1980-04-14 07:47:58,1,6.27143,-8.77143,6.3,0.344046,1,1,116632.0,148561.0,1694,0.77418274,-4.9599266,285.35791,274.76025,7.32701,330.377,-18.1542,-14.3936,43.8801,49.5234
1980-04-14 07:48:09,1,6.16667,-8.63333,6.5,0.380058,1,1,114149.0,144004.0,1694,0.77417672,-4.9599981,285.35791,274.76025,7.11299,329.531,-15.409,-15.2864,43.4104,48.758
1980-04-14 07:49:29,1,5.96667,-8.16667,6.56667,0.251661,1,1,101511.0,140084.0,1694,0.7741707,-4.9600706,285.34644,274.7605,8.45106,325.361,-5.21444,-19.4776,40.9368,48.0897
1980-04-14 07:50:50,1,5.5,-8.6,6.57143,0.32388,1,1,133278.0,134549.0,1694,0.77416474,-4.9601421,285.33081,274.7605,8.22498,327.526,-10.9227,-19.1104,46.9069,47.13
1980-04-14 07:52:11,1,5.66667,-8.65,6.36667,0.23863,1,1,180486.0,143197.0,1694,0.77415276,-4.9602861,285.31934,274.76074,8.58837,335.515,-19.6855,-7.99337,54.5857,48.6211
1980-04-14 07:53:32,1,5.35,-8.96667,6.06667,0.224227,1,1,147026.0,141652.0,1694,0.77414674,-4.9603577,285.30762,274.76074,7.97215,334.946,-13.7735,-8.97655,49.2668,48.3581
1980-04-14 07:54:53,1,5.17143,-7.67143,7.64286,0.745052,1,1,166453.0,140929.0,1694,0.77414072,-4.9604292,285.29614,274.76099,7.44718,333.817,-19.1634,-19.748,52.4208,48.2346
1980-04-14 07:56:14,1,6.01429,-8.02857,6.52857,0.328882,1,1,177433.0,131325.0,1694,0.77412874,-4.9605732,285.28467,274.76123,7.83155,329.618,-16.6488,-13.3253,54.1222,46.562
1980-04-14 07:57:35,1,5.57143,-7.94286,6.71429,0.417475,1,1,165818.0,129383.0,1694,0.77412271,-4.9606447,285.27295,274.76123,7.73503,336.085,-10.9049,-15.6389,52.3208,46.2164
1980-04-14 07:58:56,1,6.2,-7.98571,5.88571,0.420398,1,1,148106.0,125055.0,1694,0.77411675,-4.9607172,285.25757,274.76147,7.32558,325.783,-14.0646,-16.3013,49.4475,45.4368
1980-04-14 08:00:17,1,6.1,-8.14286,6.12857,0.270298,1,1,149893.0,125374.0,1694,0.77410477,-4.9608612,285.24609,274.76172,7.45441,324.668,-14.1142,-14.595,49.745,45.4947
1980-04-14 08:01:38,1,6.8,-8.26667,2.86667,0.253859,1,1,151173.0,124928.0,1694,0.77409875,-4.9609327,285.23438,274.76172,7.84388,326.648,-11.9094,-3.26562,49.9568,45.4139
1980-04-14 08:02:59,1,6.2,-7.88333,1.81667,0.442844,1,1,85036.2,124271.0,1694,0.77409273,-4.9610043,285.22266,274.76172,8.05264,316.147,-0.974321,5.89574,37.4679,45.2943
1980-04-14 08:04:20,1,5.41667,-8.61667,3.93333,0.833667,1,1,71804.6,116933.0,1694,0.77408075,-4.9611483,285.21118,274.76196,6.872,321.468,2.60709,-19.0215,34.4298,43.9366
1980-04-14 08:07:02,1,6.88571,-7.54286,5.51429,0.398978,1,1,92268.8,105042.0,1694,0.77406269,-4.9613638,285.18408,274.76221,6.54645,317.799,-10.3884,-27.8534,39.0288,41.6427
1980-04-14 08:08:23,1,7.3,-8.0,2.56667,0.471405,1,1,110005.0,96379.5,1694,0.77405673,-4.9614363,285.17261,274.76245,6.86982,318.605,-12.0677,-8.22114,42.6152,39.8887
1980-04-14 08:12:26,1,0.828571,-9.67143,5.38571,0.225877,1,1,114080.0,88724.2,1694,0.77403271,-4.9617233,285.13794,274.76294,8.04045,348.619,15.5406,-22.6109,43.3973,38.2718
1980-04-14 08:13:47,1,1.63333,-9.58333,5.06667,0.576628,1,1,72807.9,58283.7,1694,0.77402669,-4.9617958,285.12622,274.76294,6.24568,343.313,13.1447,-30.4581,34.6695,31.0193
1980-04-14 08:15:08,1,1.67143,-10.0429,2.74286,0.429047,1,1,108002.0,79215.7,1694,0.77401471,-4.9619389,285.11084,274.76318,8.45143,339.647,17.9817,-1.98934,42.2254,36.1629
1980-04-14 08:16:29,1,5.07143,-9.3,3.45714,0.974784,1,1,135742.0,102158.0,1694,0.77400869,-4.9620113,285.09912,274.76318,6.32278,350.899,7.75001,1.85002,47.3386,41.0672
1980-04-14 08:17:50,1,7.0,-7.1,6.5,0.36645,1,1,146792.0,111249.0,1694,0.77400267,-4.9620829,285.08765,274.76343,6.84777,332.217,-21.8343,-17.587,49.2276,42.8554
1980-04-14 08:19:11,1,7.5,-7.92857,5.68571,0.186263,1,1,152188.0,107422.0,1694,0.77399069,-4.9622269,285.07593,274.76343,7.47396,327.497,-13.9893,-11.9641,50.1243,42.1118
1980-04-14 08:20:32,1,7.22857,-7.8,6.25714,0.305059,1,1,134996.0,109430.0,1694,0.77398467,-4.9622984,285.06445,274.76367,6.52831,333.072,-20.1654,-13.1841,47.2083,42.5036
1980-04-14 08:21:53,1,6.9,-7.01667,6.96667,0.356293,1,1,113172.0,123822.0,1694,0.77397865,-4.9623709,285.05273,274.76367,7.22164,326.78,-15.4879,-21.6705,43.2242,45.2123
1980-04-14 08:23:14,1,6.57143,-7.11429,7.28571,0.426184,1,1,205590.0,113256.0,1694,0.77396667,-4.9625139,285.03735,274.76392,6.70209,332.413,-17.1249,-18.0121,58.2584,43.2404
1980-04-14 08:24:35,1,6.73333,-6.76667,7.16667,0.613732,1,1,131281.0,105737.0,1694,0.77396065,-4.9625864,285.02588,274.76416,7.09338,330.893,-13.8869,-19.9648,46.5541,41.7802
1980-04-14 08:25:56,1,6.9,-6.73333,6.86667,0.323179,1,1,187101.0,115149.0,1694,0.77395463,-4.9626579,285.01416,274.76416,7.2355,334.247,-17.1004,-19.1568,55.5771,43.6001
1980-04-14 08:27:17,1,6.31429,-6.67143,7.51429,0.295545,1,1,97745.0,102635.0,1694,0.77394265,-4.9628019,285.00269,274.7644,7.94594,325.401,-8.19081,-27.5567,40.1703,41.1629
1980-04-14 08:28:38,1,5.28571,-6.24286,9.32857,0.244949,1,1,121411.0,108094.0,1694,0.77393663,-4.9628735,284.99097,274.7644,7.88411,326.362,-13.3134,-29.3147,44.77,42.2434
1980-04-14 08:29:59,1,7.28333,-7.2,6.96667,0.277389,1,1,116478.0,102264.0,1694,0.77393061,-4.9629459,284.97949,274.76465,6.35082,329.737,-16.3121,-13.6331,43.851,41.0884
1980-04-14 08:31:20,1,7.07143,-5.05714,8.65714,0.870843,1,1,144479.0,97216.6,1694,0.77391863,-4.963089,284.96387,274.76465,8.17173,325.253,-13.2371,-25.675,48.8383,40.0616
1980-04-14 08:32:41,1,7.8,-6.11667,7.46667,0.365529,1,1,135467.0,117456.0,1694,0.77391261,-4.9631615,284.95239,274.76489,7.2079,329.546,-18.3963,-19.4206,47.2905,44.0347
1980-04-14 08:34:02,1,8.1,-8.21667,2.76667,0.383333,1,1,130339.0,102692.0,1694,0.77390063,-4.9633055,284.94092,274.76514,7.19709,320.639,-11.7628,-2.11289,46.3869,41.1743
1980-04-14 08:35:23,1,7.71667,-8.43333,3.48333,0.348807,1,1,114790.0,96106.3,1694,0.77389461,-4.963377,284.9292,274.76514,6.9679,328.904,-8.02198,-8.43118,43.5322,39.8321
1980-04-14 08:36:44,1,7.95714,-8.37143,3.87143,0.289264,1,1,133014.0,95280.0,1694,0.77388859,-4.9634485,284.91772,274.76538,7.21692,326.681,-10.3949,-9.83637,46.8605,39.6605
1980-04-14 08:38:05,1,7.2,-8.5,5.0,0.0,1,1,122526.0,105542.0,1694,0.77387661,-4.9635925,284.90601,274.76538,7.22533,328.497,-7.42995,-14.3177,44.975,41.7418
1980-04-14 08:39:26,1,6.91667,-8.51667,5.6,0.32059,1,1,120920.0,99749.6,1694,0.77387059,-4.9636641,284.89063,274.76563,7.03888,331.069,-4.78959,-17.2722,44.6795,40.5801
1980-04-14 09:51:07,-1,nan,nan,nan,nan,1,3,nan,nan,1694,0.77343804,-4.9688406,284.24194,274.77319,nan,320.572,8.01308,-8.71026,nan,nan
1980-04-14 09:52:28,1,7.4,-7.63333,2.86667,0.296273,1,1,56819.4,95235.5,1694,0.77343202,-4.9689121,284.23022,274.77319,7.05504,313.273,3.71714,-15.3177,30.6271,39.6513
1980-04-14 09:53:49,1,7.2,-7.96667,2.6,0.385861,1,1,63116.4,89605.7,1694,0.773426,-4.9689846,284.21851,274.77319,7.06352,314.221,4.92313,-16.4793,32.2797,38.4615
1980-04-14 09:55:10,1,6.5,-8.13333,0.55,1.992,1,1,121223.0,89977.5,1694,0.77341402,-4.9691286,284.20703,274.77344,7.22514,314.81,-1.38474,-3.29938,44.7353,38.5412
1980-04-14 09:56:32,1,6.2,-8.78333,4.23333,0.451233,1,1,136298.0,92273.7,1694,0.773408,-4.9692001,284.19165,274.77368,7.1209,327.7,-1.66353,-18.9679,47.4354,39.0298
1980-04-14 09:57:53,1,6.05714,-9.07143,3.44286,0.209956,1,1,136899.0,97510.9,1694,0.77340198,-4.9692717,284.17993,274.77368,7.52642,323.214,3.73584,-18.9838,47.5399,40.1222
1980-04-14 09:59:14,1,6.48333,-8.86667,3.81667,0.318852,1,1,106389.0,103618.0,1694,0.77338994,-4.9694157,284.16846,274.77393,7.46326,322.243,2.84917,-20.9962,41.9089,41.3594
1980-04-14 10:00:35,1,5.95,-8.93333,4.96667,0.400347,1,1,120826.0,101977.0,1694,0.77338398,-4.9694881,284.15698,274.77417,7.80297,331.63,-2.98127,-24.3343,44.6619,41.0308
1980-04-14 10:01:56,1,5.67143,-5.04286,9.57143,0.279212,1,1,187592.0,92222.3,1694,0.77337795,-4.9695597,284.14526,274.77417,7.9077,344.208,-31.1362,-34.9901,55.65,39.019
1980-04-14 10:03:17,1,5.72857,-5.54286,9.05714,0.318158,1,1,273345.0,107869.0,1694,0.77336591,-4.9697037,284.12988,274.77441,9.15512,339.828,-28.2763,-39.3328,67.1759,42.1993
1980-04-14 10:04:38,1,5.64286,-5.58571,9.28571,0.319438,1,1,248802.0,86460.4,1694,0.77335989,-4.9697752,284.11816,274.77441,7.77998,342.832,-30.3825,-33.9604,64.0892,37.7804
1980-04-14 10:05:59,1,5.38571,-5.62857,9.54286,0.302372,1,1,251363.0,110293.0,1694,0.77335387,-4.9698477,284.10669,274.77466,8.71695,342.711,-30.2771,-35.3634,64.4182,42.6708
1980-04-14 10:07:20,1,6.05,-5.88333,8.93333,1.18157,1,1,285401.0,112247.0,1694,0.77334183,-4.9699917,284.09521,274.7749,7.88508,344.207,-31.9994,-33.3291,68.6413,43.0473
1980-04-14 10:08:41,1,6.28571,-6.6,8.14286,0.32639,1,1,231737.0,98322.0,1694,0.77333581,-4.9700632,284.0835,274.7749,8.20006,339.709,-25.1003,-25.8637,61.8523,40.2887
1980-04-14 10:10:02,1,5.73333,-6.5,7.93333,0.194365,1,1,212305.0,106032.0,1694,0.77332377,-4.9702072,284.07202,274.77515,8.29938,340.335,-21.7727,-32.0592,59.2022,41.8384
1980-04-14 10:11:23,1,6.71667,-6.83333,8.2,0.208833,1,1,132815.0,130894.0,1694,0.77331775,-4.9702787,284.0564,274.77515,6.93956,352.033,-34.7475,-17.4606,46.8255,46.4855
1980-04-14 10:12:44,1,6.68571,-7.25714,7.57143,0.358569,1,1,339391.0,139305.0,1694,0.77331173,-4.9703512,284.04492,274.77539,7.92969,342.933,-25.3214,-22.4797,74.8528,47.9558
1980-04-14 10:14:05,1,6.18571,-7.72857,6.97143,0.287139,1,1,230641.0,106037.0,1694,0.77329969,-4.9704952,284.03345,274.77563,8.02412,342.687,-18.9605,-22.3483,61.7058,41.8396
1980-04-14 10:15:26,1,5.62857,-7.27143,7.9,0.274791,1,1,147163.0,90629.3,1694,0.77329373,-4.9705667,284.02173,274.77563,7.54169,337.402,-20.2806,-32.252,49.2899,38.6805
1980-04-14 10:16:47,1,5.8,-7.01429,7.54286,0.312984,1,1,175031.0,102224.0,1694,0.77328771,-4.9706383,284.01001,274.77563,7.97286,339.78,-18.3045,-32.0302,53.7546,41.0804
1980-04-14 10:18:08,1,6.33333,-6.85,7.73333,0.412647,1,1,165916.0,103206.0,1694,0.77327567,-4.9707823,283.99854,274.77588,7.99544,340.345,-21.2561,-33.1323,52.3361,41.2772
1980-04-14 10:19:29,1,6.88571,-6.58571,7.68571,0.308386,1,1,160774.0,97561.4,1694,0.77326965,-4.9708548,283.98315,274.77612,7.4575,333.803,-22.2985,-35.7338,51.5189,40.1326